Regional Weather Roundup
Issued by NWS

Home | Current Version | Previous Version | Graphics & Text | Print | Product List | Glossary On
Versions: 1 2 3 4 5 6 7 8 9 10 11 12 13 14 15 16 17 18 19 20 21 22 23 24 25 26 27 28 29 30 31 32 33 34 35 36 37 38 39 40 41 42 43 44 45 46 47 48 49 50
000
ASUS45 KBOU 250207
RWRCO

WEATHER ROUNDUP FOR COLORADO
NATIONAL WEATHER SERVICE DENVER/BOULDER CO
700 PM MST SAT JAN 24 2015

NOTE: "FAIR" INDICATES FEW OR NO CLOUDS BELOW 12000 FEET WITH NO
SIGNIFICANT WEATHER AND/OR OBSTRUCTIONS TO VISIBILITY.

COZ001>005-013-030-031-250300-
...NORTHWEST COLORADO...

CITY           SKY/WX    TMP DP  RH WIND       PRES   REMARKS
CRAIG          CLOUDY    27  20  75 SW3       30.32S
HAYDEN         CLOUDY    25  12  58 E3        30.31S
MEEKER         CLOUDY    26  18  71 CALM      30.31F
MOUNT WERNER   NOT AVBL
STEAMBOAT SPGS CLOUDY    22  14  71 CALM      30.30F
WALDEN         CLOUDY    32  21  64 SW12G22   30.24R WCI  23
$$

COZ006>008-011-250300-
...WEST CENTRAL VALLEYS...

CITY           SKY/WX    TMP DP  RH WIND       PRES   REMARKS
GRAND JUNCTION MOCLDY    29  19  66 NE3       30.36R
MONTROSE       CLOUDY    28  12  51 E5        30.37R WCI  23
EAGLE          CLOUDY    27  18  69 CALM      30.36S
RIFLE          PTCLDY    30  16  56 S3        30.36R
DELTA          CLOUDY    33  15  46 NE5       30.38R WCI  29
NUCLA          CLOUDY    34  12  40 CALM      30.37R
$$

COZ017>023-064>068-250300-
...SOUTHWEST COLORADO...

CITY           SKY/WX    TMP DP  RH WIND       PRES   REMARKS
DURANGO        PTCLDY    28  20  71 N3        30.27R
CORTEZ         CLEAR     36  14  40 SE3       30.29R
PAGOSA SPRINGS PTCLDY    26  18  70 CALM      30.26F
TELLURIDE      MOCLDY    32  13  45 CALM      30.36S
WOLF CREEK PAS NOT AVBL
$$

COZ009-010-012-014-032>034-037-058>063-250300-
...CENTRAL COLORADO...

CITY           SKY/WX    TMP DP  RH WIND       PRES   REMARKS
ASPEN          CLOUDY    28  16  60 CALM      30.32S
BUENA VISTA    CLOUDY    40  18  42 NW25G39   30.16R
COPPER MTN     CLOUDY    23  16  74 W24G32    30.30F WCI   7
BERTHOUD PASS  SNOW      16  10  79 NW48G58   30.17F VSB 1/2 WCI  -8
COTTONWOOD PAS CLOUDY    37  18  44 W39G62    30.12F
GUNNISON       CLOUDY     7  -6  56 CALM      30.39S
KREMMLING      CLOUDY    18   9  68 CALM      30.32F
LEADVILLE      CLOUDY    28  15  58 NW8       30.31R WCI  20
MONARCH PASS   CLOUDY    18   9  68 W51G59    30.35F HAZE    WCI  -6
SALIDA         CLOUDY    43  17  34 W13G20    30.25S
SUNLIGHT       CLOUDY    28  18  64 W6        30.32  WCI  22
WILKERSON PASS CLOUDY    27  18  69 N13G25    30.25S WCI  16
$$

COZ069>075-250300-
...SAN LUIS VALLEY/SANGRE DE CRISTO MOUNTAINS...

CITY           SKY/WX    TMP DP  RH WIND       PRES   REMARKS
ALAMOSA        CLOUDY    22  12  65 E3        30.26R
LA VETA PASS   NOT AVBL
SAGUACHE       CLOUDY    19  10  68 CALM      30.26R
$$

COZ035-036-038>040-250300-
...NORTHERN COLORADO FRONT RANGE...

CITY           SKY/WX    TMP DP  RH WIND       PRES   REMARKS
DENVER INTL AP CLOUDY    46  22  38 W16       30.06R
DMNS CITY PARK   N/A     48  19  31 NW7G28    30.08R
AURORA         MOCLDY    46  21  38 W17       30.08R
FRONT RANGE AP NOT AVBL
ERIE MUNI ARPT MOCLDY    44  19  37 W3        30.08R
BOULDER MUN AP MOCLDY    48  21  34 W23G30    30.05R
CENTENNIAL     CLOUDY    46  23  40 NW17      30.08R
BROOMFIELD     MOCLDY    46  19  34 W21G35    30.10R
FORT COLLINS   MOCLDY    45  25  45 N15       30.07R
LONGMONT       MOCLDY    46  20  35 CALM      30.07
$$

COZ041-046-047-076>085-087-088-250300-
...PIKES PEAK/PALMER DIVIDE AND SOUTHERN FOOTHILLS...

CITY           SKY/WX    TMP DP  RH WIND       PRES   REMARKS
COLO. SPRINGS  CLOUDY    40  22  48 N9        30.07R
A. F. ACADEMY  CLOUDY    44  20  39 N7        30.06R
ELLICOTT       CLOUDY   N/A N/A N/A N14       30.05R
FALCON         CLOUDY    40  21  46 NW14      30.08R
FORT CARSON    CLOUDY    41  18  39 N1        30.04R
LIMON          CLOUDY    44  24  45 NW21      30.04R
MONUMENT HILL  CLOUDY    34  25  69 NW9       30.09R WCI  26
TRINIDAD       CLOUDY    40  23  50 NW14      30.07R
$$

COZ042>045-048>051-090-091-250300-
...NORTHEAST COLORADO...

CITY           SKY/WX    TMP DP  RH WIND       PRES   REMARKS
GREELEY ARPT   MOCLDY    45  25  45 NW20G25   30.04R
AKRON          MOCLDY    40  30  67 NW21      30.01R
BURLINGTON     CLOUDY    44  27  51 NW22      29.99R
WRAY           MOCLDY    44  33  63 NW20G26   29.98R
STERLING       MOCLDY    45  32  61 NW25G31   30.01R
HOLYOKE        MOCLDY    45  32  61 NW23G31   29.98R
FORT MORGAN    MOCLDY    45  24  45 NW28G36   30.04R
$$

COZ086-089-092>099-250300-
...SOUTHEAST COLORADO...

CITY           SKY/WX    TMP DP  RH WIND       PRES   REMARKS
PUEBLO         CLOUDY    42  24  49 CALM      30.02S
LA JUNTA       CLOUDY    42  28  57 W10       30.01R
LAMAR          MOCLDY    37  31  78 S9        29.98R
SPRINGFIELD      N/A     36  28  73 NW12      30.00R
$$


USA.gov is the U.S. government's official web portal to all federal, state and local government web resources and services.